Weather Service Report


936 
ASUS41 KGYX 101510
RWRGYX
WEATHER ROUNDUP FOR MAINE AND NEW HAMPSHIRE
NATIONAL WEATHER SERVICE GRAY ME
1000 AM EST WED FEB 10 2016

MEZ002-005-006-010-012-015-018-020-021-024-026-027-029-101600-
MAINE
  
CITY           SKY/WX    TMP DP  RH WIND       PRES   REMARKS
PORTLAND       CLOUDY    27  20  75 SW3       29.61F                  
SANFORD        PTSUNNY   27  16  63 S9        29.60S                  
BAR HARBOR     SUNNY     30  21  69 SE3       29.64R                  
WISCASSET      CLOUDY    22  19  89 CALM      29.63S                  
ROCKLAND       CLOUDY    25  19  78 CALM      29.62F                  
FRYEBURG       PTSUNNY   21  14  74 CALM      29.58F                  
LEWISTONAUBURN CLOUDY    16  12  86 CALM      29.59S                  
AUGUSTA        CLOUDY    19  17  92 S3        29.60F                  
WATERVILLE     CLOUDY    19  16  88 CALM      29.57F                  
BANGOR         CLOUDY    18  17  96 CALM      29.62S                  
GREENVILLE       N/A     16  15  96 S5        29.47S                  
MILLINOCKET    MOSUNNY   20  12  71 VRB5      29.58S                  
HOULTON        SUNNY     17  12  80 CALM      29.56R                  
PRESQUE ISLE   CLOUDY    21  12  68 S3        29.56R                  
FRENCHVILLE    FLURRIES  11   8  88 SW5       29.49S                  
CARIBOU        MOSUNNY   13  11  92 SW3       29.54R                  
$$

NHZ002-005-008-009-011-012-014-101600-
NEW HAMPSHIRE
  
CITY           SKY/WX    TMP DP  RH WIND       PRES   REMARKS
PORTSMOUTH     CLOUDY    26  19  75 SW3       29.60S                  
ROCHESTER      CLOUDY    27  20  75 CALM      29.59S                  
NASHUA         CLOUDY    28  21  74 SE3       29.60F                  
MANCHESTER     LGT SNOW  24  21  88 VRB3      29.59S FOG              
CONCORD        LGT SNOW  24  20  84 CALM      29.59F FOG              
LACONIA        CLOUDY    27  19  74 CALM      29.58S                  
PLYMOUTH       LGT SNOW  25  20  82 CALM      29.57S                  
BERLIN         CLOUDY    21  16  81 CALM      29.50F                  
WHITEFIELD     LGT SNOW  27  21  78 CALM      29.50S                  
JAFFREY        LGT SNOW  25  23  92 CALM      29.54S VSB 1            
KEENE          CLOUDY    25  18  74 CALM      29.58S                  
LEBANON        LGT SNOW  26  22  84 CALM      29.55S VSB 1            
MT WASHINGTON  SNOW      10  10 100 W29         N/A  VSB 0   WCI -11  
$$

VTZ005-007-008-101600-
VERMONT
  
CITY           SKY/WX    TMP DP  RH WIND       PRES   REMARKS
ST JOHNSBURY     N/A     27  20  75 MISG      29.51S                  
MONTPELIER     CLOUDY    24  20  84 CALM      29.52F                  
BURLINGTON     PTSUNNY   32  24  72 S9        29.51F                  
$$

MAZ007-012-024-CTZ003-RIZ002-NYZ038-NYZ072-101600-
SOUTHERN NEW ENGLAND AND NY
  
CITY           SKY/WX    TMP DP  RH WIND       PRES   REMARKS
BOSTON         LGT SNOW  28  25  88 S6        29.62S FOG              
WORCESTER      LGT SNOW  26  24  92 SW7       29.55S FOG              
NANTUCKET      LGT SNOW  35  30  82 NE5       29.61F                  
PROVIDENCE     LGT SNOW  30  27  88 CALM      29.62S FOG              
HARTFORD       LGT SNOW  30  28  92 S3        29.59S VSB 1            
ALBANY         PTSUNNY   32  28  85 S5        29.58S FOG              
NEW YORK CITY  CLOUDY    36  28  73 W13G22    29.63R                  
$$

ANZ081-ANZ082-ANZ150-NHZ014-MEZ023>029-101600-
COASTAL MARINE OBSERVATIONS
  
STATION/POSITION TIME  TEMP    WIND        PRES    WAVE
                       AIR SEA DIR/SP/G            HT/PER
                 (UTC) (F)     (DEG/KT/KT) (MB)    (FT/S)
MOUNT DESERT ROC 1500   29     240/  9/ 11 1003.4F
MATINICUS ROCK   1500          190/  7/  8 1002.6F
ISLE OF SHOALS   1500   29     230/ 10/ 12 1002.0F
JEFFREYS LEDGE   1404      44                N/A     4/11
CASHES LEDGE BUO 1450   33 43  180/  6/ 10 1002.4F   3/13
GEORGES BANK BUO 1450   40 46              1002.4R   9/12
$$

.............KEY..............
   WCI - WIND CHILL
   TC  - TEMPERATURE IN CELSIUS
   VSB - VISIBILITY IN MILES
   HX  - HEAT INDEX
   FAIR- INDICATES FEW OR NO CLOUDS BELOW 12,000 FT, WITH NO 
         SIGNIFICANT WEATHER AND/OR OBSTRUCTIONS TO VISIBILITY.


  

Return to Home page


Western Regional Climate Center, wrcc@dri.edu